Location: Clanezzo
(45.7500°N, 9.6000°E)
Time: 08:26:47
(UTC+00:00)

CUTE-I - Pass Details

Date: 07 December 2023
Orbit: 807 x 822 km, 98.7° (Epoch: 23 February)

Event Time Altitude Azimuth Distance (km) Brightness Sun altitude
Rises 06:10:37 0° 11° (N) 3,363 ? -6.6°
Reaches altitude 10° 06:12:59 10° 8° (N) 2,428 ? -6.2°
Maximum altitude 06:18:17 63° 289° (WNW) 920 ? -5.4°
Drops below altitude 10° 06:23:33 10° 209° (SSW) 2,416 ? -4.6°
Sets 06:25:55 0° 206° (SSW) 3,345 ? -4.2°
